TimeMDT,TemperatureF,Dew PointF,Humidity,Sea Level PressureIn,VisibilityMPH,Wind Direction,Wind SpeedMPH,Gust SpeedMPH,PrecipitationIn,Events,Conditions,WindDirDegrees,DateUTC
12:53 AM,41.0,35.1,79,30.12,10.0,SSE,10.4,-,N/A,,Clear,160,2013-10-25 06:53:00
1:53 AM,37.9,35.1,89,30.10,10.0,SSE,10.4,-,N/A,,Clear,160,2013-10-25 07:53:00
2:53 AM,37.0,35.1,93,30.09,10.0,SSE,8.1,-,N/A,,Clear,160,2013-10-25 08:53:00
3:53 AM,37.9,35.1,89,30.07,10.0,South,9.2,-,N/A,,Clear,170,2013-10-25 09:53:00
4:53 AM,37.0,35.1,93,30.06,10.0,SSE,6.9,-,N/A,,Clear,160,2013-10-25 10:53:00
5:53 AM,37.0,34.0,89,30.07,10.0,South,6.9,-,N/A,,Clear,170,2013-10-25 11:53:00
6:53 AM,35.1,33.1,92,30.06,10.0,SSE,8.1,-,N/A,,Clear,160,2013-10-25 12:53:00
7:53 AM,36.0,33.1,89,30.08,10.0,Calm,Calm,-,N/A,,Clear,0,2013-10-25 13:53:00
8:53 AM,42.1,37.9,85,30.09,10.0,SSW,5.8,-,N/A,,Clear,210,2013-10-25 14:53:00
9:53 AM,48.0,39.9,74,30.09,10.0,West,8.1,-,N/A,,Clear,260,2013-10-25 15:53:00
10:53 AM,55.9,39.9,55,30.09,10.0,WNW,9.2,-,N/A,,Clear,290,2013-10-25 16:53:00
11:53 AM,59.0,39.9,49,30.09,10.0,WNW,10.4,-,N/A,,Clear,300,2013-10-25 17:53:00
12:53 PM,63.0,39.0,41,30.09,10.0,NNW,15.0,-,N/A,,Clear,340,2013-10-25 18:53:00
1:53 PM,66.0,39.0,37,30.10,10.0,NNW,15.0,-,N/A,,Clear,330,2013-10-25 19:53:00
2:53 PM,64.9,35.1,33,30.12,10.0,North,15.0,-,N/A,,Clear,350,2013-10-25 20:53:00
3:53 PM,64.9,30.9,28,30.13,10.0,NNW,19.6,24.2,N/A,,Clear,330,2013-10-25 21:53:00
4:53 PM,62.1,30.0,30,30.15,10.0,NNW,17.3,-,N/A,,Clear,330,2013-10-25 22:53:00
5:53 PM,57.0,30.0,36,30.19,10.0,NNW,11.5,-,N/A,,Clear,340,2013-10-25 23:53:00
6:53 PM,50.0,30.0,46,30.23,10.0,NNW,5.8,-,N/A,,Clear,340,2013-10-26 00:53:00
7:53 PM,50.0,30.0,46,30.25,10.0,NNW,6.9,-,N/A,,Clear,340,2013-10-26 01:53:00
8:53 PM,45.0,30.0,56,30.26,10.0,West,5.8,-,N/A,,Clear,280,2013-10-26 02:53:00
9:53 PM,41.0,30.9,67,30.26,10.0,WNW,9.2,-,N/A,,Clear,300,2013-10-26 03:53:00
10:53 PM,39.9,30.9,70,30.27,10.0,WNW,8.1,-,N/A,,Clear,290,2013-10-26 04:53:00
11:53 PM,36.0,30.0,79,30.28,10.0,WNW,4.6,-,N/A,,Clear,300,2013-10-26 05:53:00